Tracking 18945 objects as of 19-Jan-2018
HD Live streaming from Space Station
objects crossing your sky now

FENGYUN 1C DEB

Track FENGYUN 1C DEB now!
10-day predictions


NORAD ID: 30175
Int'l Code: 1999-025UG
Perigee: 856.0 km
Apogee: 1,074.0 km
Inclination: 99.6 °
Period: 104.2 minutes
Semi major axis: 7336 km
RCS: 0.0364 m2 (small)
Launch date: May 10, 1999
Source: People's Republic of China (PRC)
Launch site: Taiyaun Space Center, China (TSC)

Note: This is SATELLITE DEBRIS
aabbcc
Your satellite tracking list
Your tracking list is empty




NASA's NSSDC Master Catalog

Two Line Element Set (TLE):
1 30175U 99025UG  18018.94385638 +.00000029 +00000-0 +65553-4 0  9994
2 30175 099.5563 005.7142 0148586 265.8849 117.6017 13.81689788554835
Source of the keplerian elements: AFSPC